Year,Month,Day,Hour,Minute,Value (Times are PST for temperature in C)
2014,09,21,00,00,11.10
2014,09,21,00,01,11.10
2014,09,21,00,02,11.00
2014,09,21,00,03,11.00
2014,09,21,00,04,11.00
2014,09,21,00,05,11.00
2014,09,21,00,06,11.00
2014,09,21,00,07,11.10
2014,09,21,00,08,11.20
2014,09,21,00,09,11.30
2014,09,21,00,10,11.30
2014,09,21,00,11,11.30
2014,09,21,00,12,11.30
2014,09,21,00,13,11.30
2014,09,21,00,14,11.30
2014,09,21,00,15,11.40
2014,09,21,00,16,11.40
2014,09,21,00,17,11.50
2014,09,21,00,18,11.60
2014,09,21,00,19,11.60
2014,09,21,00,20,11.70
2014,09,21,00,21,11.70
2014,09,21,00,22,11.70
2014,09,21,00,23,11.70
2014,09,21,00,24,11.80
2014,09,21,00,25,11.80
2014,09,21,00,26,11.80
2014,09,21,00,27,11.80
2014,09,21,00,28,11.80
2014,09,21,00,29,11.80
2014,09,21,00,30,11.80
2014,09,21,00,31,11.80
2014,09,21,00,32,11.80
2014,09,21,00,33,11.80
2014,09,21,00,34,11.90
2014,09,21,00,35,11.80
2014,09,21,00,36,11.90
2014,09,21,00,37,11.90
2014,09,21,00,38,11.90
2014,09,21,00,39,11.80
2014,09,21,00,40,11.80
2014,09,21,00,41,11.70
2014,09,21,00,42,11.70
2014,09,21,00,43,11.70
2014,09,21,00,44,11.60
2014,09,21,00,45,11.60
2014,09,21,00,46,11.50
2014,09,21,00,47,11.40
2014,09,21,00,48,11.40
2014,09,21,00,49,11.30
2014,09,21,00,50,11.30
2014,09,21,00,51,11.20
2014,09,21,00,52,11.20
2014,09,21,00,53,11.20
2014,09,21,00,54,11.10
2014,09,21,00,55,11.10
2014,09,21,00,56,11.10
2014,09,21,00,57,11.00
2014,09,21,00,58,11.00
2014,09,21,00,59,10.90
2014,09,21,01,00,10.90
2014,09,21,01,01,10.90
2014,09,21,01,02,10.80
2014,09,21,01,03,10.80
2014,09,21,01,04,10.80
2014,09,21,01,05,10.80
2014,09,21,01,06,10.70
2014,09,21,01,07,10.70
2014,09,21,01,08,10.70
2014,09,21,01,09,10.70
2014,09,21,01,10,10.60
2014,09,21,01,11,10.60
2014,09,21,01,12,10.60
2014,09,21,01,13,10.60
2014,09,21,01,14,10.60
2014,09,21,01,15,10.60
2014,09,21,01,16,10.60
2014,09,21,01,17,10.60
2014,09,21,01,18,10.50
2014,09,21,01,19,10.50
2014,09,21,01,20,10.50
2014,09,21,01,21,10.50
2014,09,21,01,22,10.40
2014,09,21,01,23,10.40
2014,09,21,01,24,10.40
2014,09,21,01,25,10.40
2014,09,21,01,26,10.40
2014,09,21,01,27,10.40
2014,09,21,01,28,10.40
2014,09,21,01,29,10.30
2014,09,21,01,30,10.30
2014,09,21,01,31,10.30
2014,09,21,01,32,10.30
2014,09,21,01,33,10.30
2014,09,21,01,34,10.30
2014,09,21,01,35,10.30
2014,09,21,01,36,10.30
2014,09,21,01,37,10.30
2014,09,21,01,38,10.30
2014,09,21,01,39,10.30
2014,09,21,01,40,10.30
2014,09,21,01,41,10.30
2014,09,21,01,42,10.30
2014,09,21,01,43,10.30
2014,09,21,01,44,10.30
2014,09,21,01,45,10.30
2014,09,21,01,46,10.30
2014,09,21,01,47,10.30
2014,09,21,01,48,10.30
2014,09,21,01,49,10.30
2014,09,21,01,50,10.20
2014,09,21,01,51,10.20
2014,09,21,01,52,10.20
2014,09,21,01,53,10.20
2014,09,21,01,54,10.20
2014,09,21,01,55,10.20
2014,09,21,01,56,10.10
2014,09,21,01,57,10.10
2014,09,21,01,58,10.10
2014,09,21,01,59,10.10
2014,09,21,02,00,10.10
2014,09,21,02,01,10.10
2014,09,21,02,02,10.10
2014,09,21,02,03,10.10
2014,09,21,02,04,10.10
2014,09,21,02,05,10.10
2014,09,21,02,06,10.10
2014,09,21,02,07,10.10
2014,09,21,02,08,10.10
2014,09,21,02,09,10.10
2014,09,21,02,10,10.10
2014,09,21,02,11,10.10
2014,09,21,02,12,10.20
2014,09,21,02,13,10.20
2014,09,21,02,14,10.30
2014,09,21,02,15,10.40
2014,09,21,02,16,10.40
2014,09,21,02,17,10.40
2014,09,21,02,18,10.30
2014,09,21,02,19,10.30
2014,09,21,02,20,10.30
2014,09,21,02,21,10.30
2014,09,21,02,22,10.30
2014,09,21,02,23,10.20
2014,09,21,02,24,10.20
2014,09,21,02,25,10.20
2014,09,21,02,26,10.10
2014,09,21,02,27,10.10
2014,09,21,02,28,10.10
2014,09,21,02,29,10.10
2014,09,21,02,30,10.10
2014,09,21,02,31,10.00
2014,09,21,02,32,10.00
2014,09,21,02,33,9.90
2014,09,21,02,34,9.90
2014,09,21,02,35,9.90
2014,09,21,02,36,9.80
2014,09,21,02,37,9.80
2014,09,21,02,38,9.80
2014,09,21,02,39,9.80
2014,09,21,02,40,9.80
2014,09,21,02,41,9.80
2014,09,21,02,42,9.80
2014,09,21,02,43,9.80
2014,09,21,02,44,9.80
2014,09,21,02,45,9.80
2014,09,21,02,46,9.70
2014,09,21,02,47,9.70
2014,09,21,02,48,9.70
2014,09,21,02,49,9.70
2014,09,21,02,50,9.70
2014,09,21,02,51,9.70
2014,09,21,02,52,9.60
2014,09,21,02,53,9.60
2014,09,21,02,54,9.60
2014,09,21,02,55,9.50
2014,09,21,02,56,9.50
2014,09,21,02,57,9.50
2014,09,21,02,58,9.50
2014,09,21,02,59,9.50
2014,09,21,03,00,9.40
2014,09,21,03,01,9.40
2014,09,21,03,02,9.40
2014,09,21,03,03,9.40
2014,09,21,03,04,9.40
2014,09,21,03,05,9.40
2014,09,21,03,06,9.40
2014,09,21,03,07,9.30
2014,09,21,03,08,9.40
2014,09,21,03,09,9.40
2014,09,21,03,10,9.40
2014,09,21,03,11,9.50
2014,09,21,03,12,9.50
2014,09,21,03,13,9.60
2014,09,21,03,14,9.60
2014,09,21,03,15,9.70
2014,09,21,03,16,9.70
2014,09,21,03,17,9.70
2014,09,21,03,18,9.70
2014,09,21,03,19,9.70
2014,09,21,03,20,9.60
2014,09,21,03,21,9.60
2014,09,21,03,22,9.50
2014,09,21,03,23,9.50
2014,09,21,03,24,9.40
2014,09,21,03,25,9.40
2014,09,21,03,26,9.40
2014,09,21,03,27,9.30
2014,09,21,03,28,9.40
2014,09,21,03,29,9.50
2014,09,21,03,30,9.50
2014,09,21,03,31,9.60
2014,09,21,03,32,9.60
2014,09,21,03,33,9.50
2014,09,21,03,34,9.50
2014,09,21,03,35,9.40
2014,09,21,03,36,9.40
2014,09,21,03,37,9.30
2014,09,21,03,38,9.30
2014,09,21,03,39,9.20
2014,09,21,03,40,9.20
2014,09,21,03,41,9.10
2014,09,21,03,42,9.10
2014,09,21,03,43,9.10
2014,09,21,03,44,9.10
2014,09,21,03,45,9.00
2014,09,21,03,46,9.00
2014,09,21,03,47,9.00
2014,09,21,03,48,9.00
2014,09,21,03,49,9.00
2014,09,21,03,50,9.00
2014,09,21,03,51,8.90
2014,09,21,03,52,8.90
2014,09,21,03,53,8.90
2014,09,21,03,54,8.90
2014,09,21,03,55,9.00
2014,09,21,03,56,9.10
2014,09,21,03,57,9.20
2014,09,21,03,58,9.20
2014,09,21,03,59,9.10
2014,09,21,04,00,9.10
2014,09,21,04,01,9.10
2014,09,21,04,02,9.00
2014,09,21,04,03,9.00
2014,09,21,04,04,9.00
2014,09,21,04,05,9.00
2014,09,21,04,06,9.00
2014,09,21,04,07,9.00
2014,09,21,04,08,9.00
2014,09,21,04,09,8.90
2014,09,21,04,10,8.90
2014,09,21,04,11,8.90
2014,09,21,04,12,8.90
2014,09,21,04,13,8.90
2014,09,21,04,14,8.90
2014,09,21,04,15,8.80
2014,09,21,04,16,8.80
2014,09,21,04,17,8.80
2014,09,21,04,18,8.80
2014,09,21,04,19,8.80
2014,09,21,04,20,8.80
2014,09,21,04,21,8.80
2014,09,21,04,22,8.70
2014,09,21,04,23,8.70
2014,09,21,04,24,8.70
2014,09,21,04,25,8.70
2014,09,21,04,26,8.70
2014,09,21,04,27,8.70
2014,09,21,04,28,8.70
2014,09,21,04,29,8.70
2014,09,21,04,30,8.70
2014,09,21,04,31,8.70
2014,09,21,04,32,8.70
2014,09,21,04,33,8.70
2014,09,21,04,34,8.70
2014,09,21,04,35,8.70
2014,09,21,04,36,8.70
2014,09,21,04,37,8.70
2014,09,21,04,38,8.70
2014,09,21,04,39,8.70
2014,09,21,04,40,8.70
2014,09,21,04,41,8.70
2014,09,21,04,42,8.70
2014,09,21,04,43,8.70
2014,09,21,04,44,8.70
2014,09,21,04,45,8.70
2014,09,21,04,46,8.70
2014,09,21,04,47,8.70
2014,09,21,04,48,8.70
2014,09,21,04,49,8.70
2014,09,21,04,50,8.70
2014,09,21,04,51,8.70
2014,09,21,04,52,8.70
2014,09,21,04,53,8.70
2014,09,21,04,54,8.70
2014,09,21,04,55,8.70
2014,09,21,04,56,8.60
2014,09,21,04,57,8.60
2014,09,21,04,58,8.60
2014,09,21,04,59,8.60
2014,09,21,05,00,8.60
2014,09,21,05,01,8.50
2014,09,21,05,02,8.50
2014,09,21,05,03,8.50
2014,09,21,05,04,8.50
2014,09,21,05,05,8.40
2014,09,21,05,06,8.40
2014,09,21,05,07,8.40
2014,09,21,05,08,8.40
2014,09,21,05,09,8.40
2014,09,21,05,10,8.40
2014,09,21,05,11,8.40
2014,09,21,05,12,8.40
2014,09,21,05,13,8.40
2014,09,21,05,14,8.40
2014,09,21,05,15,8.40
2014,09,21,05,16,8.40
2014,09,21,05,17,8.40
2014,09,21,05,18,8.30
2014,09,21,05,19,8.30
2014,09,21,05,20,8.40
2014,09,21,05,21,8.30
2014,09,21,05,22,8.30
2014,09,21,05,23,8.40
2014,09,21,05,24,8.40
2014,09,21,05,25,8.40
2014,09,21,05,26,8.40
2014,09,21,05,27,8.40
2014,09,21,05,28,8.40
2014,09,21,05,29,8.40
2014,09,21,05,30,8.40
2014,09,21,05,31,8.40
2014,09,21,05,32,8.40
2014,09,21,05,33,8.40
2014,09,21,05,34,8.40
2014,09,21,05,35,8.40
2014,09,21,05,36,8.40
2014,09,21,05,37,8.40
2014,09,21,05,38,8.30
2014,09,21,05,39,8.30
2014,09,21,05,40,8.30
2014,09,21,05,41,8.30
2014,09,21,05,42,8.30
2014,09,21,05,43,8.30
2014,09,21,05,44,8.30
2014,09,21,05,45,8.30
2014,09,21,05,46,8.30
2014,09,21,05,47,8.30
2014,09,21,05,48,8.30
2014,09,21,05,49,8.30
2014,09,21,05,50,8.30
2014,09,21,05,51,8.20
2014,09,21,05,52,8.20
2014,09,21,05,53,8.20
2014,09,21,05,54,8.20
2014,09,21,05,55,8.20
2014,09,21,05,56,8.20
2014,09,21,05,57,8.20
2014,09,21,05,58,8.20
2014,09,21,05,59,8.20
2014,09,21,06,00,8.20
2014,09,21,06,01,8.20
2014,09,21,06,02,8.30
2014,09,21,06,03,8.30
2014,09,21,06,04,8.30
2014,09,21,06,05,8.20
2014,09,21,06,06,8.20
2014,09,21,06,07,8.20
2014,09,21,06,08,8.20
2014,09,21,06,09,8.20
2014,09,21,06,10,8.20
2014,09,21,06,11,8.20
2014,09,21,06,12,8.20
2014,09,21,06,13,8.20
2014,09,21,06,14,8.20
2014,09,21,06,15,8.20
2014,09,21,06,16,8.20
2014,09,21,06,17,8.20
2014,09,21,06,18,8.20
2014,09,21,06,19,8.20
2014,09,21,06,20,8.20
2014,09,21,06,21,8.20
2014,09,21,06,22,8.30
2014,09,21,06,23,8.30
2014,09,21,06,24,8.40
2014,09,21,06,25,8.40
2014,09,21,06,26,8.40
2014,09,21,06,27,8.40
2014,09,21,06,28,8.40
2014,09,21,06,29,8.30
2014,09,21,06,30,8.30
2014,09,21,06,31,8.30
2014,09,21,06,32,8.30
2014,09,21,06,33,8.30
2014,09,21,06,34,8.20
2014,09,21,06,35,8.20
2014,09,21,06,36,8.20
2014,09,21,06,37,8.20
2014,09,21,06,38,8.20
2014,09,21,06,39,8.20
2014,09,21,06,40,8.20
2014,09,21,06,41,8.20
2014,09,21,06,42,8.20
2014,09,21,06,43,8.20
2014,09,21,06,44,8.20
2014,09,21,06,45,8.20
2014,09,21,06,46,8.20
2014,09,21,06,47,8.20
2014,09,21,06,48,8.20
2014,09,21,06,49,8.20
2014,09,21,06,50,8.20
2014,09,21,06,51,8.20
2014,09,21,06,52,8.20
2014,09,21,06,53,8.10
2014,09,21,06,54,8.10
2014,09,21,06,55,8.10
2014,09,21,06,56,8.10
2014,09,21,06,57,8.10
2014,09,21,06,58,8.10
2014,09,21,06,59,8.00
2014,09,21,07,00,8.00
2014,09,21,07,01,8.00
2014,09,21,07,02,8.00
2014,09,21,07,03,8.10
2014,09,21,07,04,8.20
2014,09,21,07,05,8.30
2014,09,21,07,06,8.40
2014,09,21,07,07,8.50
2014,09,21,07,08,8.60
2014,09,21,07,09,8.70
2014,09,21,07,10,8.80
2014,09,21,07,11,8.80
2014,09,21,07,12,8.70
2014,09,21,07,13,8.70
2014,09,21,07,14,8.70
2014,09,21,07,15,8.70
2014,09,21,07,16,8.80
2014,09,21,07,17,8.70
2014,09,21,07,18,8.70
2014,09,21,07,19,8.70
2014,09,21,07,20,8.60
2014,09,21,07,21,8.60
2014,09,21,07,22,8.50
2014,09,21,07,23,8.40
2014,09,21,07,24,8.40
2014,09,21,07,25,8.40
2014,09,21,07,26,8.40
2014,09,21,07,27,8.40
2014,09,21,07,28,8.40
2014,09,21,07,29,8.40
2014,09,21,07,30,8.40
2014,09,21,07,31,8.40
2014,09,21,07,32,8.40
2014,09,21,07,33,8.40
2014,09,21,07,34,8.40
2014,09,21,07,35,8.40
2014,09,21,07,36,8.40
2014,09,21,07,37,8.40
2014,09,21,07,38,8.40
2014,09,21,07,39,8.40
2014,09,21,07,40,8.50
2014,09,21,07,41,8.50
2014,09,21,07,42,8.50
2014,09,21,07,43,8.50
2014,09,21,07,44,8.50
2014,09,21,07,45,8.60
2014,09,21,07,46,8.60
2014,09,21,07,47,8.70
2014,09,21,07,48,8.80
2014,09,21,07,49,8.90
2014,09,21,07,50,8.90
2014,09,21,07,51,9.00
2014,09,21,07,52,9.10
2014,09,21,07,53,9.20
2014,09,21,07,54,9.20
2014,09,21,07,55,9.20
2014,09,21,07,56,9.20
2014,09,21,07,57,9.30
2014,09,21,07,58,9.30
2014,09,21,07,59,9.30
2014,09,21,08,00,9.30
2014,09,21,08,01,9.30
2014,09,21,08,02,9.30
2014,09,21,08,03,9.30
2014,09,21,08,04,9.30
2014,09,21,08,05,9.30
2014,09,21,08,06,9.30
2014,09,21,08,07,9.30
2014,09,21,08,08,9.30
2014,09,21,08,09,9.40
2014,09,21,08,10,9.40
2014,09,21,08,11,9.40
2014,09,21,08,12,9.40
2014,09,21,08,13,9.50
2014,09,21,08,14,9.50
2014,09,21,08,15,9.50
2014,09,21,08,16,9.60
2014,09,21,08,17,9.60
2014,09,21,08,18,9.60
2014,09,21,08,19,9.60
2014,09,21,08,20,9.70
2014,09,21,08,21,9.70
2014,09,21,08,22,9.80
2014,09,21,08,23,9.80
2014,09,21,08,24,9.90
2014,09,21,08,25,9.90
2014,09,21,08,26,10.00
2014,09,21,08,27,10.10
2014,09,21,08,28,10.20
2014,09,21,08,29,10.30
2014,09,21,08,30,10.40
2014,09,21,08,31,10.40
2014,09,21,08,32,10.50
2014,09,21,08,33,10.60
2014,09,21,08,34,10.70
2014,09,21,08,35,10.80
2014,09,21,08,36,10.80
2014,09,21,08,37,10.90
2014,09,21,08,38,11.00
2014,09,21,08,39,11.10
2014,09,21,08,40,11.20
2014,09,21,08,41,11.30
2014,09,21,08,42,11.50
2014,09,21,08,43,11.60
2014,09,21,08,44,11.70
2014,09,21,08,45,11.80
2014,09,21,08,46,11.90
2014,09,21,08,47,12.00
2014,09,21,08,48,12.00
2014,09,21,08,49,12.10
2014,09,21,08,50,12.20
2014,09,21,08,51,12.20
2014,09,21,08,52,12.30
2014,09,21,08,53,12.40
2014,09,21,08,54,12.50
2014,09,21,08,55,12.60
2014,09,21,08,56,12.80
2014,09,21,08,57,12.90
2014,09,21,08,58,13.00
2014,09,21,08,59,13.10
2014,09,21,09,00,13.20
2014,09,21,09,01,13.30
2014,09,21,09,02,13.30
2014,09,21,09,03,13.40
2014,09,21,09,04,13.50
2014,09,21,09,05,13.50
2014,09,21,09,06,13.60
2014,09,21,09,07,13.70
2014,09,21,09,08,13.70
2014,09,21,09,09,13.80
2014,09,21,09,10,13.90
2014,09,21,09,11,13.90
2014,09,21,09,12,14.00
2014,09,21,09,13,14.00
2014,09,21,09,14,14.10
2014,09,21,09,15,14.20
2014,09,21,09,16,14.30
2014,09,21,09,17,14.40
2014,09,21,09,18,14.40
2014,09,21,09,19,14.50
2014,09,21,09,20,14.60
2014,09,21,09,21,14.60
2014,09,21,09,22,14.70
2014,09,21,09,23,14.70
2014,09,21,09,24,14.80
2014,09,21,09,25,14.80
2014,09,21,09,26,14.90
2014,09,21,09,27,14.90
2014,09,21,09,28,15.00
2014,09,21,09,29,15.00
2014,09,21,09,30,15.10
2014,09,21,09,31,15.20
2014,09,21,09,32,15.20
2014,09,21,09,33,15.30
2014,09,21,09,34,15.30
2014,09,21,09,35,15.30
2014,09,21,09,36,15.30
2014,09,21,09,37,15.30
2014,09,21,09,38,15.30
2014,09,21,09,39,15.40
2014,09,21,09,40,15.40
2014,09,21,09,41,15.40
2014,09,21,09,42,15.40
2014,09,21,09,43,15.50
2014,09,21,09,44,15.50
2014,09,21,09,45,15.60
2014,09,21,09,46,15.60
2014,09,21,09,47,15.70
2014,09,21,09,48,15.70
2014,09,21,09,49,15.80
2014,09,21,09,50,15.80
2014,09,21,09,51,15.90
2014,09,21,09,52,16.00
2014,09,21,09,53,16.10
2014,09,21,09,54,16.20
2014,09,21,09,55,16.30
2014,09,21,09,56,16.30
2014,09,21,09,57,16.40
2014,09,21,09,58,16.40
2014,09,21,09,59,16.40
2014,09,21,10,00,16.50
2014,09,21,10,01,16.60
2014,09,21,10,02,16.60
2014,09,21,10,03,16.70
2014,09,21,10,04,16.70
2014,09,21,10,05,16.80
2014,09,21,10,06,16.80
2014,09,21,10,07,16.80
2014,09,21,10,08,16.80
2014,09,21,10,09,16.80
2014,09,21,10,10,16.80
2014,09,21,10,11,16.70
2014,09,21,10,12,16.60
2014,09,21,10,13,16.50
2014,09,21,10,14,16.40
2014,09,21,10,15,16.40
2014,09,21,10,16,16.40
2014,09,21,10,17,16.40
2014,09,21,10,18,16.30
2014,09,21,10,19,16.30
2014,09,21,10,20,16.30
2014,09,21,10,21,16.30
2014,09,21,10,22,16.20
2014,09,21,10,23,16.20
2014,09,21,10,24,16.10
2014,09,21,10,25,16.10
2014,09,21,10,26,16.10
2014,09,21,10,27,16.00
2014,09,21,10,28,15.90
2014,09,21,10,29,15.90
2014,09,21,10,30,15.90
2014,09,21,10,31,15.80
2014,09,21,10,32,15.80
2014,09,21,10,33,15.80
2014,09,21,10,34,15.80
2014,09,21,10,35,15.80
2014,09,21,10,36,15.80
2014,09,21,10,37,15.70
2014,09,21,10,38,15.70
2014,09,21,10,39,15.70
2014,09,21,10,40,15.70
2014,09,21,10,41,15.60
2014,09,21,10,42,15.70
2014,09,21,10,43,15.70
2014,09,21,10,44,15.80
2014,09,21,10,45,15.80
2014,09,21,10,46,15.90
2014,09,21,10,47,16.00
2014,09,21,10,48,16.00
2014,09,21,10,49,16.10
2014,09,21,10,50,16.10
2014,09,21,10,51,16.20
2014,09,21,10,52,16.30
2014,09,21,10,53,16.30
2014,09,21,10,54,16.40
2014,09,21,10,55,16.40
2014,09,21,10,56,16.40
2014,09,21,10,57,16.40
2014,09,21,10,58,16.40
2014,09,21,10,59,16.30
2014,09,21,11,00,16.30
2014,09,21,11,01,16.30
2014,09,21,11,02,16.30
2014,09,21,11,03,16.30
2014,09,21,11,04,16.30
2014,09,21,11,05,16.30
2014,09,21,11,06,16.20
2014,09,21,11,07,16.20
2014,09,21,11,08,16.20
2014,09,21,11,09,16.20
2014,09,21,11,10,16.10
2014,09,21,11,11,16.10
2014,09,21,11,12,16.10
2014,09,21,11,13,16.00
2014,09,21,11,14,15.90
2014,09,21,11,15,15.90
2014,09,21,11,16,15.90
2014,09,21,11,17,15.90
2014,09,21,11,18,15.90
2014,09,21,11,19,15.80
2014,09,21,11,20,15.80
2014,09,21,11,21,15.70
2014,09,21,11,22,15.70
2014,09,21,11,23,15.70
2014,09,21,11,24,15.70
2014,09,21,11,25,15.80
2014,09,21,11,26,15.80
2014,09,21,11,27,15.90
2014,09,21,11,28,15.90
2014,09,21,11,29,16.00
2014,09,21,11,30,16.10
2014,09,21,11,31,16.20
2014,09,21,11,32,16.20
2014,09,21,11,33,16.30
2014,09,21,11,34,16.40
2014,09,21,11,35,16.50
2014,09,21,11,36,16.60
2014,09,21,11,37,16.70
2014,09,21,11,38,16.70
2014,09,21,11,39,16.80
2014,09,21,11,40,16.90
2014,09,21,11,41,17.00
2014,09,21,11,42,17.00
2014,09,21,11,43,17.10
2014,09,21,11,44,17.10
2014,09,21,11,45,17.20
2014,09,21,11,46,17.20
2014,09,21,11,47,17.20
2014,09,21,11,48,17.30
2014,09,21,11,49,17.30
2014,09,21,11,50,17.40
2014,09,21,11,51,17.40
2014,09,21,11,52,17.40
2014,09,21,11,53,17.40
2014,09,21,11,54,17.40
2014,09,21,11,55,17.40
2014,09,21,11,56,17.30
2014,09,21,11,57,17.30
2014,09,21,11,58,17.30
2014,09,21,11,59,17.30
2014,09,21,12,00,17.30
2014,09,21,12,01,17.30
2014,09,21,12,02,17.30
2014,09,21,12,03,17.30
2014,09,21,12,04,17.30
2014,09,21,12,05,17.30
2014,09,21,12,06,17.40
2014,09,21,12,07,17.40
2014,09,21,12,08,17.40
2014,09,21,12,09,17.50
2014,09,21,12,10,17.50
2014,09,21,12,11,17.60
2014,09,21,12,12,17.60
2014,09,21,12,13,17.60
2014,09,21,12,14,17.70
2014,09,21,12,15,17.70
2014,09,21,12,16,17.80
2014,09,21,12,17,17.80
2014,09,21,12,18,17.90
2014,09,21,12,19,17.90
2014,09,21,12,20,17.90
2014,09,21,12,21,17.90
2014,09,21,12,22,17.90
2014,09,21,12,23,17.90
2014,09,21,12,24,17.80
2014,09,21,12,25,17.80
2014,09,21,12,26,17.80
2014,09,21,12,27,17.80
2014,09,21,12,28,17.70
2014,09,21,12,29,17.70
2014,09,21,12,30,17.70
2014,09,21,12,31,17.70
2014,09,21,12,32,17.70
2014,09,21,12,33,17.70
2014,09,21,12,34,17.70
2014,09,21,12,35,17.70
2014,09,21,12,36,17.70
2014,09,21,12,37,17.70
2014,09,21,12,38,17.60
2014,09,21,12,39,17.50
2014,09,21,12,40,17.50
2014,09,21,12,41,17.50
2014,09,21,12,42,17.50
2014,09,21,12,43,17.50
2014,09,21,12,44,17.60
2014,09,21,12,45,17.70
2014,09,21,12,46,17.80
2014,09,21,12,47,17.90
2014,09,21,12,48,17.90
2014,09,21,12,49,18.00
2014,09,21,12,50,18.00
2014,09,21,12,51,18.10
2014,09,21,12,52,18.10
2014,09,21,12,53,18.10
2014,09,21,12,54,18.10
2014,09,21,12,55,18.10
2014,09,21,12,56,18.10
2014,09,21,12,57,18.10
2014,09,21,12,58,18.00
2014,09,21,12,59,17.80
2014,09,21,13,00,17.60
2014,09,21,13,01,17.50
2014,09,21,13,02,17.50
2014,09,21,13,03,17.40
2014,09,21,13,04,17.40
2014,09,21,13,05,17.40
2014,09,21,13,06,17.40
2014,09,21,13,07,17.30
2014,09,21,13,08,17.30
2014,09,21,13,09,17.30
2014,09,21,13,10,17.30
2014,09,21,13,11,17.30
2014,09,21,13,12,17.30
2014,09,21,13,13,17.30
2014,09,21,13,14,17.30
2014,09,21,13,15,17.30
2014,09,21,13,16,17.30
2014,09,21,13,17,17.40
2014,09,21,13,18,17.40
2014,09,21,13,19,17.40
2014,09,21,13,20,17.50
2014,09,21,13,21,17.50
2014,09,21,13,22,17.50
2014,09,21,13,23,17.40
2014,09,21,13,24,17.40
2014,09,21,13,25,17.40
2014,09,21,13,26,17.50
2014,09,21,13,27,17.50
2014,09,21,13,28,17.50
2014,09,21,13,29,17.40
2014,09,21,13,30,17.40
2014,09,21,13,31,17.50
2014,09,21,13,32,17.60
2014,09,21,13,33,17.60
2014,09,21,13,34,17.70
2014,09,21,13,35,17.80
2014,09,21,13,36,17.90
2014,09,21,13,37,18.00
2014,09,21,13,38,18.10
2014,09,21,13,39,18.10
2014,09,21,13,40,18.20
2014,09,21,13,41,18.20
2014,09,21,13,42,18.20
2014,09,21,13,43,18.30
2014,09,21,13,44,18.30
2014,09,21,13,45,18.40
2014,09,21,13,46,18.40
2014,09,21,13,47,18.40
2014,09,21,13,48,18.40
2014,09,21,13,49,18.50
2014,09,21,13,50,18.50
2014,09,21,13,51,18.60
2014,09,21,13,52,18.70
2014,09,21,13,53,18.70
2014,09,21,13,54,18.80
2014,09,21,13,55,18.80
2014,09,21,13,56,18.80
2014,09,21,13,57,18.90
2014,09,21,13,58,19.00
2014,09,21,13,59,19.10
2014,09,21,14,00,19.10
2014,09,21,14,01,19.20
2014,09,21,14,02,19.20
2014,09,21,14,03,19.10
2014,09,21,14,04,19.00
2014,09,21,14,05,19.00
2014,09,21,14,06,18.90
2014,09,21,14,07,18.90
2014,09,21,14,08,18.90
2014,09,21,14,09,18.80
2014,09,21,14,10,18.80
2014,09,21,14,11,18.80
2014,09,21,14,12,18.80
2014,09,21,14,13,18.80
2014,09,21,14,14,18.80
2014,09,21,14,15,18.90
2014,09,21,14,16,18.90
2014,09,21,14,17,18.90
2014,09,21,14,18,18.90
2014,09,21,14,19,18.90
2014,09,21,14,20,18.90
2014,09,21,14,21,18.80
2014,09,21,14,22,18.80
2014,09,21,14,23,18.80
2014,09,21,14,24,18.80
2014,09,21,14,25,18.80
2014,09,21,14,26,18.80
2014,09,21,14,27,18.80
2014,09,21,14,28,18.70
2014,09,21,14,29,18.70
2014,09,21,14,30,18.70
2014,09,21,14,31,18.70
2014,09,21,14,32,18.70
2014,09,21,14,33,18.70
2014,09,21,14,34,18.70
2014,09,21,14,35,18.70
2014,09,21,14,36,18.80
2014,09,21,14,37,18.80
2014,09,21,14,38,18.80
2014,09,21,14,39,18.80
2014,09,21,14,40,18.80
2014,09,21,14,41,18.80
2014,09,21,14,42,18.80
2014,09,21,14,43,18.80
2014,09,21,14,44,18.80
2014,09,21,14,45,18.90
2014,09,21,14,46,18.90
2014,09,21,14,47,18.90
2014,09,21,14,48,18.90
2014,09,21,14,49,18.90
2014,09,21,14,50,18.90
2014,09,21,14,51,19.00
2014,09,21,14,52,19.10
2014,09,21,14,53,19.20
2014,09,21,14,54,19.30
2014,09,21,14,55,19.30
2014,09,21,14,56,19.40
2014,09,21,14,57,19.40
2014,09,21,14,58,19.40
2014,09,21,14,59,19.40
2014,09,21,15,00,19.50
2014,09,21,15,01,19.50
2014,09,21,15,02,19.50
2014,09,21,15,03,19.60
2014,09,21,15,04,19.60
2014,09,21,15,05,19.60
2014,09,21,15,06,19.70
2014,09,21,15,07,19.70
2014,09,21,15,08,19.80
2014,09,21,15,09,19.90
2014,09,21,15,10,19.90
2014,09,21,15,11,19.90
2014,09,21,15,12,19.90
2014,09,21,15,13,19.90
2014,09,21,15,14,20.00
2014,09,21,15,15,20.00
2014,09,21,15,16,20.10
2014,09,21,15,17,20.20
2014,09,21,15,18,20.20
2014,09,21,15,19,20.30
2014,09,21,15,20,20.30
2014,09,21,15,21,20.40
2014,09,21,15,22,20.40
2014,09,21,15,23,20.40
2014,09,21,15,24,20.50
2014,09,21,15,25,20.50
2014,09,21,15,26,20.60
2014,09,21,15,27,20.60
2014,09,21,15,28,20.60
2014,09,21,15,29,20.50
2014,09,21,15,30,20.50
2014,09,21,15,31,20.60
2014,09,21,15,32,20.60
2014,09,21,15,33,20.60
2014,09,21,15,34,20.70
2014,09,21,15,35,20.70
2014,09,21,15,36,20.70
2014,09,21,15,37,20.70
2014,09,21,15,38,20.80
2014,09,21,15,39,20.80
2014,09,21,15,40,20.80
2014,09,21,15,41,20.90
2014,09,21,15,42,21.00
2014,09,21,15,43,21.00
2014,09,21,15,44,21.10
2014,09,21,15,45,21.20
2014,09,21,15,46,21.20
2014,09,21,15,47,21.20
2014,09,21,15,48,21.20
2014,09,21,15,49,21.20
2014,09,21,15,50,21.20
2014,09,21,15,51,21.20
2014,09,21,15,52,21.20
2014,09,21,15,53,21.30
2014,09,21,15,54,21.30
2014,09,21,15,55,21.30
2014,09,21,15,56,21.40
2014,09,21,15,57,21.40
2014,09,21,15,58,21.40
2014,09,21,15,59,21.40
2014,09,21,16,00,21.30
2014,09,21,16,01,21.30
2014,09,21,16,02,21.20
2014,09,21,16,03,21.10
2014,09,21,16,04,21.00
2014,09,21,16,05,21.00
2014,09,21,16,06,21.00
2014,09,21,16,07,21.00
2014,09,21,16,08,20.90
2014,09,21,16,09,20.90
2014,09,21,16,10,20.80
2014,09,21,16,11,20.80
2014,09,21,16,12,20.70
2014,09,21,16,13,20.70
2014,09,21,16,14,20.70
2014,09,21,16,15,20.80
2014,09,21,16,16,20.80
2014,09,21,16,17,20.80
2014,09,21,16,18,20.80
2014,09,21,16,19,20.80
2014,09,21,16,20,20.80
2014,09,21,16,21,20.80
2014,09,21,16,22,20.90
2014,09,21,16,23,20.90
2014,09,21,16,24,20.90
2014,09,21,16,25,20.90
2014,09,21,16,26,20.90
2014,09,21,16,27,20.90
2014,09,21,16,28,20.80
2014,09,21,16,29,20.80
2014,09,21,16,30,20.70
2014,09,21,16,31,20.70
2014,09,21,16,32,20.70
2014,09,21,16,33,20.60
2014,09,21,16,34,20.50
2014,09,21,16,35,20.50
2014,09,21,16,36,20.50
2014,09,21,16,37,20.50
2014,09,21,16,38,20.50
2014,09,21,16,39,20.40
2014,09,21,16,40,20.40
2014,09,21,16,41,20.40
2014,09,21,16,42,20.40
2014,09,21,16,43,20.30
2014,09,21,16,44,20.30
2014,09,21,16,45,20.30
2014,09,21,16,46,20.20
2014,09,21,16,47,20.20
2014,09,21,16,48,20.10
2014,09,21,16,49,20.10
2014,09,21,16,50,20.10
2014,09,21,16,51,20.10
2014,09,21,16,52,20.10
2014,09,21,16,53,20.10
2014,09,21,16,54,20.10
2014,09,21,16,55,20.10
2014,09,21,16,56,20.00
2014,09,21,16,57,19.90
2014,09,21,16,58,19.90
2014,09,21,16,59,19.80
2014,09,21,17,00,19.80
2014,09,21,17,01,19.80
2014,09,21,17,02,19.80
2014,09,21,17,03,19.80
2014,09,21,17,04,19.80
2014,09,21,17,05,19.90
2014,09,21,17,06,19.90
2014,09,21,17,07,19.80
2014,09,21,17,08,19.80
2014,09,21,17,09,19.70
2014,09,21,17,10,19.70
2014,09,21,17,11,19.60
2014,09,21,17,12,19.50
2014,09,21,17,13,19.50
2014,09,21,17,14,19.40
2014,09,21,17,15,19.30
2014,09,21,17,16,19.30
2014,09,21,17,17,19.30
2014,09,21,17,18,19.20
2014,09,21,17,19,19.20
2014,09,21,17,20,19.20
2014,09,21,17,21,19.30
2014,09,21,17,22,19.40
2014,09,21,17,23,19.40
2014,09,21,17,24,19.50
2014,09,21,17,25,19.60
2014,09,21,17,26,19.70
2014,09,21,17,27,19.80
2014,09,21,17,28,19.90
2014,09,21,17,29,19.90
2014,09,21,17,30,20.00
2014,09,21,17,31,20.10
2014,09,21,17,32,20.10
2014,09,21,17,33,20.20
2014,09,21,17,34,20.20